Location: Fort Wayne
(41.1310°N, 85.1290°W)
Time: 09:32:29
(UTC-04:00)

Cosmos 1953 - Visible Passes

Search period start: 29 July 2015 00:00
Search period end: 08 August 2015 00:00
Orbit: 544 x 565 km, 82.5° (Epoch: 28 July)

Date Brightness Start Highest point End Pass type
(mag) Time Alt. Az. Time Alt. Az. Time Alt. Az.
29 Jul 3.8 03:42:52 27° ESE 03:43:33 29° E 03:47:04 10° NNE visible
29 Jul 4.0 05:18:42 16° W 05:20:10 19° WNW 05:23:01 10° NNW visible
30 Jul 3.6 03:40:15 32° ESE 03:40:35 33° E 03:44:13 10° NNE visible
30 Jul 4.1 05:16:04 15° W 05:17:17 17° WNW 05:19:52 10° NNW visible
31 Jul 3.4 03:37:37 38° E 03:37:37 38° E 03:41:21 10° NNE visible
31 Jul 4.2 05:13:26 14° W 05:14:23 15° WNW 05:16:41 10° NW visible
01 Aug 3.3 03:34:56 42° E 03:34:56 42° E 03:38:28 10° NNE visible
01 Aug 4.4 05:10:46 13° W 05:11:30 13° WNW 05:13:24 10° NW visible
02 Aug 3.2 03:32:15 46° ENE 03:32:15 46° ENE 03:35:34 10° NNE visible
02 Aug 4.5 05:08:05 12° WNW 05:08:38 12° WNW 05:10:00 10° NW visible
03 Aug 3.2 03:29:33 46° NE 03:29:33 46° NE 03:32:39 10° NNE visible
03 Aug 4.6 05:05:22 10° WNW 05:05:45 10° WNW 05:06:15 10° WNW visible
04 Aug 3.3 03:26:50 44° NNE 03:26:50 44° NNE 03:29:43 10° NNE visible
05 Aug 3.5 03:24:05 41° NNE 03:24:05 41° NNE 03:26:47 10° N visible
06 Aug 3.7 03:21:20 37° N 03:21:20 37° N 03:23:50 10° N visible
07 Aug 3.9 03:18:34 33° N 03:18:34 33° N 03:20:52 10° N visible
